{"data":{"norad_id":62224,"epoch":"2026-05-25T04:34:46.716672Z","epoch_age_seconds":54743,"freshness":"FRESH","line1":"1 62224U 24231G   26145.19081848  .00167512  00000+0  13571-2 0  9995","line2":"2 62224  53.1560  84.3915 0001095  96.3372 263.7771 15.69757604 85425","mean_motion":15.69757604,"eccentricity":0.0001095,"inclination_deg":53.156,"raan_deg":84.3915,"arg_perigee_deg":96.3372,"mean_anomaly_deg":263.7771,"bstar":0.0013571,"rev_number":8542,"period_min":91.733908237211,"perigee_km":358.85274827175,"apogee_km":360.32831060069,"semimajor_km":6737.7275294362,"source":"CELESTRAK","updated_at":"2026-05-25T13:38:19.614241Z"}}